GFSFLT1_250_spd_000.txt.gz
Wind_Speed
44 44 44 43 43 44 48 48 48 48 48 52 48 46 44 46 44 45 51 40 45 48 48 52 55 58 73 86 88 88 89 91
43 44 45 45 45 48 50 54 55 57 56 58 60 57 57 58 53 50 55 53 58 60 54 51 55 57 66 81 92 93 95 97
44 42 43 44 43 45 50 54 55 57 60 60 64 65 64 65 65 64 62 65 67 67 67 64 61 60 64 74 87 95 100 104
41 43 44 41 43 46 49 53 53 55 58 63 62 65 69 70 72 74 70 71 70 73 73 68 66 67 68 72 80 95 101 108
41 45 47 49 50 54 56 56 57 57 57 63 70 69 69 74 78 82 84 80 82 80 77 75 75 73 76 74 75 83 97 110
50 51 54 55 55 57 57 60 61 63 65 67 69 76 77 82 88 91 93 93 93 89 87 77 77 76 76 75 78 80 84 95
52 58 60 61 60 58 61 63 65 69 71 75 79 78 85 90 96 100 100 101 99 97 96 87 84 84 81 77 75 80 84 90
57 58 62 60 60 62 65 66 69 72 77 82 82 85 89 96 102 103 102 99 99 100 98 94 88 84 82 78 74 74 80 86
52 57 57 58 61 66 71 73 73 78 79 81 84 89 94 100 107 107 105 104 104 103 102 98 93 88 79 75 72 71 74 80
61 63 65 66 69 72 77 81 84 85 87 89 92 98 102 105 110 110 109 108 106 107 101 95 89 82 77 73 71 70 70 74
68 70 71 74 76 79 81 83 85 90 91 94 100 105 108 112 117 115 114 110 111 106 99 92 84 77 74 71 69 69 68 72
75 77 77 80 79 82 85 85 88 92 96 99 106 111 116 120 123 119 119 114 110 103 93 86 82 76 72 69 68 67 68 70
82 83 85 87 86 85 85 88 92 96 99 104 110 116 121 126 126 119 117 111 106 98 87 85 80 74 70 67 66 67 68 70
86 88 88 91 94 93 94 95 96 99 104 112 116 123 128 131 128 114 112 107 100 89 86 83 78 72 68 66 65 66 67 68
89 91 93 96 99 98 99 101 103 110 115 118 119 129 134 133 119 112 108 102 93 87 85 80 74 69 67 65 65 65 65 66
95 97 99 102 102 103 106 105 113 118 123 125 130 133 140 124 114 108 103 97 90 86 81 75 69 66 66 65 64 66 66 67
98 99 103 105 106 105 107 111 118 122 127 132 136 134 134 113 108 104 99 93 88 81 76 70 66 65 65 65 63 62 63 63
99 102 105 107 109 112 117 122 126 131 135 137 136 135 115 108 106 100 94 89 83 76 71 67 65 65 63 61 60 59 57 56
106 108 109 113 118 120 125 130 136 137 140 142 138 119 111 107 101 94 90 84 77 72 68 65 64 62 58 57 55 53 52 52

GFSFLT1_250_spd_003.txt.gz
Wind_Speed
31 32 33 33 34 34 35 35 37 37 41 41 40 42 44 43 44 46 52 57 62 64 66 67 64 58 55 58 63 68 67 76
27 31 33 35 38 38 34 36 38 41 44 44 47 47 52 54 55 56 56 61 65 69 72 71 70 67 65 62 62 68 74 77
28 30 33 38 40 41 41 41 42 44 49 52 55 54 57 59 60 60 60 66 69 72 76 80 77 74 72 72 71 66 74 82
33 38 37 40 43 45 46 42 46 48 50 56 59 60 62 65 65 64 65 69 75 80 80 85 87 84 82 79 77 75 72 77
41 39 41 44 46 49 52 54 58 59 60 64 64 66 66 67 71 73 75 79 84 87 88 93 95 94 89 84 81 82 80 78
47 46 47 48 49 54 56 59 66 70 70 68 67 67 70 73 75 78 82 88 89 92 101 100 102 99 89 85 81 81 82 80
50 52 53 54 54 60 66 66 66 69 71 73 73 73 76 78 81 82 92 96 97 100 109 106 112 101 92 85 82 79 76 77
49 52 53 50 58 66 68 68 69 74 76 75 78 79 81 81 82 89 99 105 106 110 119 114 118 100 94 91 84 81 76 70
52 52 56 59 63 66 69 72 74 78 83 86 88 88 89 90 90 95 102 106 114 115 120 124 113 100 94 91 85 79 71 68
57 60 63 67 72 76 78 80 84 83 86 90 93 96 96 99 97 101 107 115 119 118 123 123 106 97 94 89 83 74 67 67
72 74 76 78 82 83 83 88 90 86 87 94 99 101 102 104 107 110 115 123 125 125 118 113 100 97 91 85 76 72 69 66
76 81 83 84 83 85 88 91 95 94 95 99 105 107 107 113 115 117 123 126 128 122 118 109 101 95 86 78 74 71 67 64
83 85 86 87 89 90 94 99 102 101 103 106 109 112 113 118 121 126 131 133 129 117 111 103 98 90 81 76 72 69 64 61
87 88 89 92 93 97 101 105 109 111 111 110 112 115 121 124 127 131 132 129 115 109 102 96 89 82 78 74 68 64 61 60
89 95 98 99 101 105 109 112 116 118 119 119 120 123 126 129 134 132 122 112 105 101 96 89 82 79 75 69 64 60 59 59
95 97 99 104 109 114 117 119 120 124 128 129 130 132 131 126 121 114 108 105 99 95 87 82 80 75 69 64 61 59 59 59
99 102 106 111 115 118 121 124 127 131 132 130 128 121 117 113 109 105 98 92 88 84 79 78 74 69 66 63 59 59 59 58
104 109 113 118 124 128 131 131 130 127 128 125 122 118 114 107 99 93 92 86 82 78 78 73 68 66 64 60 58 57 56 55
114 120 124 126 130 131 128 126 121 120 120 117 112 106 98 92 91 88 83 79 77 77 75 68 64 64 61 58 56 55 53 51

GFSFLT1_250_spd_006.txt.gz
Wind_Speed
20 24 27 27 27 29 30 31 31 33 35 37 41 45 49 49 47 48 50 51 51 49 49 51 53 57 59 61 64 65 65 62
22 25 29 30 31 33 32 36 38 39 40 43 47 49 51 49 46 46 47 50 54 54 53 54 59 63 66 68 72 74 75 71
26 30 33 35 37 40 40 40 43 42 44 47 49 51 53 54 55 55 56 59 59 60 61 62 66 71 73 77 82 84 83 84
34 39 42 45 45 47 47 47 47 46 50 52 54 57 62 65 65 66 66 65 68 71 70 74 75 74 80 83 87 92 91 89
39 44 49 52 52 53 54 55 59 60 63 66 63 64 69 70 68 68 70 72 73 76 76 78 79 82 83 86 92 95 96 96
39 46 51 53 55 58 62 65 67 68 68 71 72 72 76 76 77 78 80 81 83 86 88 88 89 92 94 95 99 102 102 98
45 51 54 56 58 63 67 69 68 71 71 71 76 78 77 79 81 83 85 88 91 95 99 101 100 102 102 105 106 105 104 92
52 56 57 62 66 68 70 72 72 72 73 77 80 83 85 88 90 93 97 97 97 101 103 105 108 110 112 114 112 110 97 88
57 60 64 68 70 72 75 75 76 77 81 85 87 91 96 99 102 104 106 109 108 109 112 114 118 121 121 118 113 99 92 88
67 70 72 74 76 77 79 82 85 89 91 92 95 99 103 107 109 111 113 115 118 119 122 126 123 120 115 109 99 95 91 87
71 72 74 76 79 82 86 90 92 93 95 98 101 105 110 115 118 121 123 123 123 123 122 119 119 114 108 100 96 90 85 81
73 77 81 82 84 87 91 96 100 103 104 107 111 116 121 124 126 125 123 120 116 115 115 114 111 105 102 97 89 83 79 75
78 84 87 89 92 97 101 104 106 109 113 118 122 125 127 129 126 126 123 117 111 109 107 102 99 95 90 85 81 78 72 70
85 88 91 95 98 101 106 109 109 115 121 127 125 124 125 126 126 119 114 109 106 102 96 93 88 84 83 79 73 70 70 67
90 94 94 99 104 106 105 108 115 122 125 125 123 122 121 116 108 105 104 102 97 91 86 85 82 77 74 72 69 68 65 61
96 99 100 104 109 108 113 118 122 123 120 119 117 115 108 104 100 98 97 94 92 89 85 80 78 77 72 69 67 63 60 58
103 106 110 110 111 116 117 121 119 117 118 115 109 105 101 99 94 87 84 80 78 76 76 75 73 71 69 64 59 57 57 56
108 107 110 113 116 120 122 116 114 112 110 106 102 99 97 95 93 88 83 81 79 78 77 73 71 67 63 59 55 55 56 54
114 115 118 120 122 121 115 113 108 103 98 98 97 96 94 91 87 85 83 81 79 78 76 72 66 61 58 56 55 56 52 50

GFSFLT1_250_spd_009.txt.gz
Wind_Speed
30 31 29 33 33 33 35 37 38 38 39 42 46 47 48 50 51 50 50 52 53 53 51 51 51 53 56 59 60 61 63 64
34 36 33 35 38 40 42 41 39 40 43 47 52 56 57 58 58 53 53 56 57 57 59 60 60 60 62 65 68 68 68 68
37 42 41 40 43 45 48 49 47 47 49 53 58 62 61 62 62 60 60 62 64 65 66 68 67 67 69 73 76 78 78 79
40 43 47 50 53 54 55 57 59 61 62 62 62 64 64 66 67 69 70 71 71 72 75 76 78 80 82 81 82 86 90 90
48 48 49 52 56 58 60 62 65 67 66 67 67 68 69 70 73 76 79 81 81 84 86 87 89 90 90 90 91 92 93 97
49 51 52 55 56 58 61 65 69 70 71 70 71 73 76 78 80 83 86 88 91 93 96 99 101 103 103 102 102 102 103 104
50 52 52 55 59 63 65 67 67 70 72 75 77 79 82 86 90 92 95 97 99 101 102 104 107 110 110 107 104 103 101 101
50 53 56 59 63 65 66 67 72 76 78 81 85 89 93 97 99 101 103 105 106 108 113 112 110 109 108 104 101 100 96 95
53 56 60 63 66 69 72 76 81 83 86 90 94 97 102 105 110 112 113 112 112 115 108 106 104 102 101 97 95 92 92 91
57 61 64 68 73 76 80 84 88 92 93 96 100 102 106 110 113 115 116 115 112 108 107 105 99 95 93 92 88 87 85 84
63 67 72 79 82 84 87 92 95 97 99 102 105 108 112 116 119 121 119 113 109 103 98 95 92 90 88 87 85 84 82 80
70 75 81 85 86 89 92 96 96 98 103 109 113 118 119 119 121 119 116 112 106 95 90 89 88 87 86 85 82 81 80 79
79 83 85 86 89 92 98 102 106 111 114 118 122 121 120 121 117 111 110 102 96 91 89 88 85 84 85 84 80 76 75 74
80 82 86 90 95 101 106 108 112 117 120 122 123 119 120 113 110 106 102 95 92 90 87 85 83 81 79 77 76 75 76 78
81 85 91 98 105 109 111 115 119 122 124 127 125 120 113 106 104 99 97 93 92 90 88 85 82 82 79 77 75 74 74 74
89 96 100 107 112 115 119 125 128 131 133 130 123 117 107 102 97 96 95 94 93 91 88 87 85 80 77 75 73 73 72 70
97 104 109 113 117 122 127 131 132 131 127 122 115 106 102 97 93 91 90 89 87 85 83 81 78 75 71 69 68 66 65 62
107 113 117 123 128 129 130 130 131 123 119 113 106 101 97 94 93 91 89 89 88 84 79 73 70 67 64 63 62 60 56 53
110 117 121 129 133 132 132 133 125 121 111 104 98 96 95 94 92 89 87 85 82 77 72 68 65 63 60 59 56 54 52 48

GFSFLT1_250_spd_012.txt.gz
Wind_Speed
32 35 35 38 43 45 45 45 46 48 49 50 51 53 54 54 54 55 55 55 57 58 58 60 60 61 62 62 63 63 63 62
39 44 44 44 47 46 47 48 50 53 54 55 56 57 60 62 62 62 62 63 63 64 64 67 67 67 69 71 72 73 74 74
42 44 46 47 51 55 53 53 55 56 59 59 58 57 58 61 65 68 68 67 70 72 74 76 78 80 81 82 82 83 84 85
47 47 46 50 54 57 58 58 60 61 58 58 61 64 65 68 72 74 77 80 82 83 85 87 91 94 94 95 95 95 95 95
49 51 51 53 54 55 57 60 59 61 62 64 66 70 72 75 78 81 84 87 90 94 96 98 100 102 103 102 101 101 100 99
57 55 52 53 54 56 57 59 62 66 70 73 74 77 80 83 88 90 92 95 98 102 106 106 105 106 107 104 105 105 101 100
52 49 51 53 56 59 62 66 70 74 78 82 84 87 91 93 96 98 101 102 104 108 109 110 109 108 106 105 100 97 93 94
49 52 55 58 60 62 66 71 76 80 83 86 89 92 94 99 102 104 105 107 110 112 113 112 106 107 103 97 93 88 85 84
53 55 58 61 64 68 72 76 81 84 87 89 94 98 102 105 108 110 113 115 115 114 111 106 103 100 96 94 88 82 76 74
57 59 62 66 71 76 79 82 85 88 90 94 99 105 108 112 116 118 118 116 116 110 107 103 95 92 90 86 81 77 73 72
63 67 70 73 77 81 85 85 87 91 98 101 106 111 114 116 116 116 114 111 110 108 101 94 90 85 83 80 78 74 73 73
71 74 78 81 83 86 87 89 97 102 104 110 114 120 121 121 118 114 110 108 106 99 94 90 88 85 83 80 78 76 75 75
77 80 80 80 83 86 90 98 103 107 114 118 121 126 127 127 122 119 116 108 103 96 93 89 86 83 82 81 78 76 76 77
76 78 81 85 90 95 100 106 111 116 120 124 126 130 134 129 123 116 109 102 99 94 91 89 86 82 78 76 75 75 75 75
83 86 90 94 98 103 109 113 117 122 127 130 133 137 136 123 116 107 101 99 97 95 92 88 84 80 79 76 73 73 73 74
87 91 97 103 107 111 115 121 125 130 134 137 136 134 120 113 105 100 98 97 94 90 85 82 79 76 73 71 70 69 68 67
94 99 104 107 113 118 124 131 135 137 136 136 132 121 111 103 102 99 95 92 87 83 80 77 74 71 68 65 63 63 63 62
102 109 114 120 123 126 132 138 140 137 133 129 119 108 105 104 102 97 93 87 82 78 75 71 67 65 62 60 59 59 59 57
109 116 121 126 131 139 143 142 136 132 125 118 111 106 105 102 97 91 85 80 76 73 68 63 61 60 57 56 55 54 53 49

GFSFLT1_250_spd_015.txt.gz
Wind_Speed
36 37 38 39 41 46 48 46 46 49 52 50 49 49 52 53 54 55 57 57 58 60 61 61 63 63 66 68 69 72 72 73
38 40 41 42 43 45 45 48 47 49 49 50 52 55 57 58 59 61 62 67 66 65 65 67 68 70 71 73 74 75 78 79
40 41 41 43 47 46 49 48 51 52 52 55 58 60 63 64 64 66 67 69 70 73 77 80 81 83 87 88 90 90 90 90
42 43 43 46 47 47 48 50 54 57 59 60 62 64 66 68 69 71 72 74 78 82 85 86 90 93 95 97 98 98 100 98
43 45 50 52 55 52 56 58 59 61 63 66 69 71 73 75 75 76 79 84 86 89 91 95 97 99 102 103 105 105 104 103
49 52 52 53 51 56 57 59 62 65 69 72 75 77 78 79 82 85 88 89 92 95 99 101 100 102 104 103 102 102 103 104
43 43 47 53 55 57 59 63 68 71 75 78 80 82 83 85 90 92 94 99 101 103 105 106 109 111 109 102 98 100 101 100
45 48 49 51 56 61 66 70 74 77 79 80 81 83 87 95 99 101 102 106 109 110 112 114 116 114 107 100 100 98 99 96
47 50 55 58 62 65 70 74 77 78 80 85 91 95 98 102 107 112 115 118 118 119 117 116 112 108 101 97 95 94 90 90
52 55 60 63 65 69 72 74 78 81 86 94 98 103 107 110 115 124 128 125 122 120 115 112 109 102 95 89 87 85 85 84
57 60 63 66 72 78 82 82 84 89 96 101 105 109 116 126 127 132 132 126 120 118 115 109 103 94 88 83 82 80 80 79
61 66 70 75 79 82 82 86 91 96 102 107 111 122 130 134 135 132 126 118 115 111 105 100 96 94 91 87 84 82 80 79
66 72 76 81 81 86 90 93 97 103 107 112 122 128 135 138 131 123 115 111 109 102 97 95 94 93 92 88 84 81 77 75
71 78 83 86 89 93 96 100 103 109 113 120 128 135 143 136 126 116 112 105 99 96 96 96 93 89 85 82 79 76 74 71
79 82 86 90 94 98 101 105 111 116 121 125 133 139 138 123 117 112 103 99 98 97 94 90 84 79 76 74 72 70 69 68
83 89 93 97 99 101 106 113 118 124 128 136 142 128 119 113 108 104 103 100 97 92 86 81 77 74 70 68 65 64 63 64
90 97 101 102 106 109 113 119 126 130 135 137 129 118 111 103 99 99 98 93 88 84 79 74 70 66 61 59 57 58 57 56
99 103 108 111 112 117 120 127 130 133 134 126 116 108 103 99 95 91 88 85 80 76 73 69 65 61 58 55 54 53 52 51
106 111 114 118 123 124 127 130 132 128 126 116 107 105 101 97 92 87 82 76 73 70 67 63 61 58 55 52 51 48 46 44

GFSFLT1_250_spd_018.txt.gz
Wind_Speed
36 37 39 41 39 37 36 40 44 46 43 42 45 48 50 53 54 56 59 61 63 66 69 71 71 69 66 68 71 71 70 73
34 37 39 40 39 39 39 43 46 43 44 48 51 52 54 56 60 63 66 68 70 71 69 69 71 74 78 78 78 81 83 83
37 39 40 40 41 43 46 45 44 46 51 53 55 58 60 64 68 70 71 72 72 72 74 77 81 83 84 88 92 93 95 96
39 44 45 47 46 41 42 46 50 52 53 56 60 64 67 69 71 72 72 73 76 78 81 82 83 88 89 93 96 100 101 103
44 46 41 39 41 45 48 50 51 54 58 60 62 65 68 70 70 72 76 80 83 84 89 94 99 99 105 106 105 107 107 105
41 37 43 44 47 47 48 52 56 57 61 64 68 72 73 73 76 79 83 87 88 94 101 103 108 111 113 112 111 112 107 106
41 44 46 47 48 51 54 58 61 65 69 72 77 78 79 81 87 90 92 95 97 102 109 113 117 121 122 121 112 109 106 103
46 46 47 49 52 56 61 64 67 71 77 81 82 84 87 90 93 97 100 102 106 112 116 120 126 129 128 121 113 107 103 101
44 46 51 54 58 61 64 67 72 75 78 80 84 87 90 94 97 101 106 112 118 122 123 127 130 131 123 113 104 99 96 93
49 54 56 58 61 65 68 72 75 79 83 87 92 95 99 103 106 108 113 120 125 130 132 133 132 121 114 106 98 94 88 87
54 59 59 63 66 68 73 77 84 88 93 96 99 102 107 109 112 116 122 128 132 134 134 132 124 113 105 96 92 92 90 88
58 61 65 69 71 76 83 88 92 95 99 102 105 109 113 117 121 125 130 135 135 134 130 119 110 104 100 97 94 90 88 84
65 68 72 75 80 85 91 95 99 103 107 110 112 115 121 125 130 135 137 134 131 124 113 106 103 101 99 95 90 86 81 78
72 75 78 82 86 91 95 99 104 108 113 115 119 123 129 133 139 139 135 129 122 112 105 101 100 96 91 86 81 78 76 73
75 79 84 88 93 98 101 106 110 114 118 121 125 133 137 139 137 131 123 116 109 106 102 96 90 84 80 77 74 71 69 66
81 86 92 95 100 104 107 113 119 122 125 130 135 140 135 131 123 115 108 104 103 99 91 85 80 75 72 69 66 64 62 59
88 93 96 101 106 109 115 121 127 132 136 139 134 129 123 114 106 103 102 100 96 87 81 77 73 69 66 62 60 57 54 52
94 97 101 107 111 118 125 130 136 138 132 125 121 114 104 101 100 98 95 90 84 80 76 72 67 63 59 56 54 52 50 47
101 105 111 117 122 124 133 135 132 124 118 113 105 100 99 98 95 92 86 82 78 74 69 65 61 56 53 51 51 50 47 44

GFSFLT1_250_spd_021.txt.gz
Wind_Speed
40 41 38 35 37 38 38 38 41 43 44 48 44 47 49 50 51 52 55 58 60 62 63 65 65 63 65 69 69 68 69 68
34 34 35 37 41 45 45 46 44 41 42 47 50 49 51 54 58 61 62 64 67 68 68 68 68 71 73 75 73 76 80 84
32 34 38 42 47 44 40 41 45 48 50 50 52 55 59 63 66 69 69 73 75 75 74 73 81 83 83 84 85 86 87 92
33 38 41 45 41 41 45 47 49 50 52 54 58 61 64 66 70 72 75 77 76 78 79 79 83 87 88 90 91 93 95 100
37 41 43 41 43 47 50 50 51 53 57 60 63 65 68 71 70 72 76 79 82 84 87 91 95 94 95 97 99 103 107 108
42 46 44 45 50 51 51 52 56 59 62 66 68 68 74 73 79 81 86 88 90 94 96 99 103 103 104 105 107 111 117 121
47 50 47 49 53 52 53 58 62 63 67 69 72 73 78 80 85 91 94 98 101 103 105 107 110 113 114 117 118 124 127 127
49 49 49 53 53 55 61 65 67 68 72 74 78 83 86 92 95 99 102 104 109 112 115 117 119 120 122 126 130 134 132 128
49 50 53 53 56 60 65 68 72 74 77 81 86 91 95 98 102 105 109 112 116 119 122 125 127 130 134 138 136 134 128 122
51 52 53 59 63 67 72 75 79 82 86 89 93 98 102 105 109 113 118 123 128 130 133 136 137 141 139 136 132 125 116 106
54 56 61 67 71 74 77 78 83 88 93 97 101 103 109 113 116 120 125 130 134 139 143 142 141 135 129 124 117 109 103 102
58 61 68 72 76 78 81 84 89 95 99 103 106 111 116 121 128 132 135 139 140 144 140 134 128 121 113 108 105 104 101 98
63 67 70 73 76 80 85 90 97 102 105 108 113 120 125 131 136 137 139 139 138 134 127 118 112 106 104 104 102 98 94 88
67 71 76 80 84 87 92 98 103 108 114 119 124 130 134 135 136 136 133 125 119 113 109 107 106 104 101 98 93 88 83 79
73 76 80 84 88 93 99 104 110 115 121 127 132 134 132 130 127 121 119 114 110 108 107 106 103 99 92 88 83 80 77 73
78 82 86 91 95 102 108 115 121 126 132 134 135 128 123 119 118 114 112 108 106 105 103 99 94 87 83 81 77 73 69 66
82 86 91 96 102 109 116 124 132 137 137 130 121 116 113 113 112 108 106 106 103 99 93 87 83 80 75 72 69 67 65 62
87 95 101 107 112 120 122 130 136 128 121 114 110 110 110 109 107 106 104 99 94 88 84 79 75 71 67 64 62 61 59 57
96 103 109 114 121 126 129 132 126 120 115 107 108 108 106 104 103 100 95 89 84 79 74 70 67 62 60 60 57 56 52 49

GFSFLT1_250_spd_024.txt.gz
Wind_Speed
34 35 38 39 37 38 40 44 46 39 43 45 47 48 51 51 52 53 57 59 60 61 64 65 64 65 66 65 69 71 70 71
35 38 34 35 36 41 45 44 44 45 50 51 53 51 51 55 57 58 61 60 64 66 68 68 71 73 76 79 76 77 80 84
38 35 35 36 39 43 44 46 47 52 55 55 55 55 59 62 62 62 65 64 66 71 74 75 78 83 85 87 88 89 88 93
39 39 39 39 43 46 50 51 51 56 57 56 59 63 67 68 69 71 72 73 76 80 83 85 88 90 95 96 99 100 100 101
40 41 43 45 49 53 56 55 55 59 62 64 66 68 71 73 74 76 78 81 85 89 93 96 98 99 102 106 107 110 113 113
40 42 46 50 54 58 59 56 60 62 66 68 70 73 77 78 81 83 88 92 96 99 103 105 107 110 114 115 116 120 123 124
43 45 46 51 58 59 59 63 65 66 68 73 77 81 84 87 90 93 96 100 104 108 111 115 119 121 123 125 125 127 130 131
44 49 53 52 53 58 63 66 69 72 74 77 79 84 87 90 94 99 103 108 112 117 120 126 129 131 133 131 133 129 126 125
50 52 51 54 58 62 63 67 71 74 77 82 85 87 92 95 102 107 112 116 120 127 131 135 135 135 132 128 123 117 115 109
49 51 55 61 63 63 66 69 75 79 83 88 93 97 103 105 110 116 121 128 132 135 136 135 132 127 122 118 113 112 111 109
52 57 59 60 63 67 71 77 83 86 88 92 97 100 105 112 120 127 132 132 134 136 131 128 123 118 112 113 113 112 109 106
55 58 61 65 70 75 79 81 84 89 93 99 105 111 117 125 129 132 131 132 134 128 122 117 114 112 110 109 108 109 107 105
56 61 63 67 72 76 81 85 89 94 100 107 114 121 128 134 132 131 130 130 124 120 117 116 116 114 109 107 106 103 100 95
61 66 71 76 81 86 89 93 99 103 110 118 123 129 132 135 134 133 125 120 119 116 117 115 113 112 110 106 101 92 87 86
68 73 78 81 86 90 95 101 106 113 120 126 131 134 134 134 124 117 115 113 112 113 112 111 108 104 97 94 89 84 81 79
71 77 83 87 91 96 102 107 115 122 129 132 136 131 129 124 114 111 110 109 109 108 105 101 97 92 86 86 83 77 74 71
78 82 85 91 96 103 109 114 122 130 131 131 130 127 124 117 112 109 108 106 104 100 95 90 86 82 78 77 74 69 66 64
82 86 92 97 105 111 118 123 131 135 133 130 127 114 117 112 106 105 104 99 95 91 86 81 78 73 70 69 66 63 61 60
87 92 98 104 110 116 123 131 136 135 132 128 124 113 100 105 100 98 97 90 85 81 76 73 71 67 63 63 62 59 57 53

GFSFLT1_250_spd_027.txt.gz
Wind_Speed
29 32 37 39 38 32 24 27 31 43 49 55 56 54 58 60 59 58 59 59 61 65 66 66 68 68 69 71 73 75 75 76
33 35 38 40 34 35 36 36 37 42 48 54 56 58 61 64 64 63 63 64 67 68 69 69 70 71 74 78 79 80 83 88
36 36 36 39 41 40 42 45 48 51 56 59 60 63 65 68 67 67 68 71 74 77 76 77 79 81 84 87 89 90 93 98
41 38 39 40 44 47 49 51 55 58 61 63 64 66 69 69 71 74 76 77 79 81 83 84 87 89 92 95 97 102 105 109
46 44 42 43 47 51 52 53 57 62 65 64 66 69 69 73 74 78 81 85 87 89 92 94 97 100 104 107 109 111 114 117
41 42 44 47 50 53 55 58 61 61 62 68 71 71 73 77 81 85 87 90 94 98 102 105 109 113 118 120 123 123 122 120
38 41 44 48 53 57 62 63 62 63 65 67 69 74 78 83 88 90 94 98 103 107 110 114 118 122 127 126 127 125 124 120
39 42 45 49 54 57 59 64 67 69 71 74 76 78 83 87 92 96 100 104 111 114 118 125 129 131 131 131 128 124 121 117
40 43 47 50 52 53 57 61 65 69 73 79 85 89 93 97 102 106 110 115 118 123 130 131 129 126 125 122 119 114 111 106
44 47 50 53 56 56 59 65 70 74 80 85 89 94 98 103 109 114 120 122 127 134 134 133 127 123 120 116 115 111 108 108
48 51 54 56 58 61 65 69 75 80 86 91 95 99 104 109 114 120 124 128 133 133 129 126 122 117 112 109 107 106 104 103
50 52 54 57 61 66 72 75 80 86 91 96 101 105 109 116 123 130 130 131 131 124 120 117 115 112 109 105 101 100 97 93
55 57 58 60 66 71 76 80 85 90 95 102 109 114 118 123 132 133 129 125 121 120 119 116 111 107 104 103 99 93 87 83
54 56 60 65 71 77 82 87 92 97 101 108 115 122 124 127 124 129 125 122 124 123 118 113 109 105 100 96 92 87 82 77
57 61 65 72 77 82 88 93 98 104 110 116 122 124 125 119 123 122 122 121 123 115 109 103 99 94 90 87 83 79 76 72
63 66 70 76 81 87 93 99 106 112 118 123 128 128 124 124 118 116 108 101 104 103 97 93 89 84 79 78 76 72 70 67
66 71 77 83 87 93 100 106 114 120 123 128 130 124 129 129 117 109 103 94 93 89 85 81 78 74 72 71 71 68 67 65
71 77 83 88 94 98 104 111 119 125 131 132 130 129 129 122 113 108 101 95 91 86 80 76 74 70 67 67 68 65 62 60
77 84 90 95 100 106 111 117 123 131 135 134 129 127 121 111 106 102 95 89 86 82 76 73 71 68 65 63 61 60 57 54

GFSFLT1_250_spd_030.txt.gz
Wind_Speed
46 45 45 45 41 40 38 41 41 41 46 51 54 59 59 63 63 63 65 66 66 67 66 65 68 71 74 77 78 79 79 77
40 40 42 41 42 44 41 46 46 49 51 53 57 61 64 65 67 70 69 68 69 68 70 72 73 75 78 80 84 86 86 86
37 38 40 43 44 47 45 47 47 50 53 57 61 65 67 69 71 71 72 74 76 76 77 79 82 87 89 90 91 94 95 95
38 39 39 41 43 47 49 49 49 52 57 61 64 67 72 73 73 76 76 77 81 83 85 88 91 92 93 94 97 100 104 106
38 39 40 41 43 46 49 51 53 55 60 64 67 68 69 72 75 78 81 84 88 90 92 95 98 100 103 105 107 111 113 114
44 42 44 46 47 48 49 51 54 59 62 63 65 67 69 74 78 83 89 94 97 99 102 105 110 113 117 119 122 125 128 126
44 46 48 47 49 50 52 53 53 55 58 62 66 69 73 79 83 87 92 97 101 103 107 112 117 121 125 128 130 131 129 125
38 41 43 46 51 53 54 55 57 61 62 64 69 74 79 83 87 93 98 102 107 110 114 120 125 130 131 130 128 125 125 124
42 43 44 46 48 51 54 58 60 62 66 71 76 81 86 90 95 101 106 109 113 117 123 127 128 125 120 118 119 120 121 121
45 47 50 53 53 53 57 59 63 66 68 74 79 85 91 95 101 106 112 117 121 126 124 123 120 120 117 116 116 115 114 109
48 50 52 53 54 57 59 62 65 70 75 80 86 91 96 102 108 113 118 122 125 126 122 116 118 120 119 113 108 103 99 96
48 50 52 55 56 57 62 67 71 75 81 85 91 96 102 108 112 119 125 129 129 127 123 124 122 120 117 107 104 99 95 89
50 52 55 55 57 62 67 70 74 80 85 92 98 103 106 112 117 122 128 132 129 125 123 119 113 111 104 100 97 92 90 85
51 54 56 58 61 66 70 74 80 87 93 98 104 110 115 119 124 128 132 128 121 121 116 110 101 96 91 91 87 83 79 76
56 56 58 60 64 69 74 80 87 94 100 104 111 115 121 126 127 125 125 118 115 113 106 97 88 85 83 80 77 74 71 69
60 60 60 64 68 72 80 88 95 100 107 112 116 122 126 128 128 126 123 117 106 98 94 89 83 81 78 75 74 71 69 66
61 62 64 70 75 81 88 95 100 106 112 118 124 130 134 129 122 118 113 105 99 92 87 83 80 77 74 72 70 68 65 61
62 64 69 75 81 87 95 100 105 110 114 121 129 132 130 124 120 115 109 99 93 88 83 80 76 74 70 68 66 63 60 56
66 71 76 82 89 95 101 107 111 116 122 127 130 127 125 125 119 108 99 93 88 82 77 74 71 68 65 63 60 58 55 53

GFSFLT1_250_spd_033.txt.gz
Wind_Speed
54 52 48 47 48 47 37 42 42 55 59 63 66 61 67 66 64 66 67 68 71 73 74 76 74 74 75 75 75 77 77 77
44 45 46 47 48 37 38 43 54 54 62 68 69 70 68 66 67 68 70 72 73 76 76 75 75 76 78 80 81 82 85 86
40 44 48 48 45 50 51 52 57 59 62 64 65 65 64 66 68 70 72 74 75 76 78 77 79 82 85 87 89 90 93 94
36 42 44 48 50 51 50 52 55 57 59 63 65 66 66 67 71 73 75 77 78 79 81 84 86 89 93 95 99 101 101 101
40 43 46 49 50 49 51 52 53 57 60 61 63 65 66 68 71 74 77 79 82 84 88 92 97 101 104 108 108 109 111 112
46 49 49 50 48 46 50 52 54 56 60 63 64 67 70 73 77 79 82 85 89 93 97 101 105 109 112 115 117 119 121 124
40 44 45 44 41 44 51 54 57 59 60 62 67 71 73 76 79 82 85 90 95 99 102 107 111 114 118 120 123 123 124 124
38 42 44 45 45 48 52 55 58 61 64 67 70 73 76 79 82 86 90 95 101 106 110 114 118 120 124 126 125 126 123 123
45 48 50 51 51 53 56 58 61 64 67 71 73 76 79 83 86 91 97 102 107 111 115 119 121 124 124 121 120 119 120 123
45 48 51 52 53 56 58 60 63 66 69 71 73 78 83 87 90 96 103 108 113 117 118 122 124 123 120 120 121 121 120 118
41 43 45 49 53 56 58 60 62 64 67 71 76 81 86 90 95 101 110 114 120 123 124 124 125 127 124 120 116 114 109 107
46 49 51 52 54 56 59 62 64 67 70 74 79 85 89 96 102 109 116 121 123 124 128 130 127 123 120 115 108 102 99 95
50 52 53 54 57 59 61 64 67 69 73 79 85 90 95 103 109 114 120 125 128 127 123 121 118 114 112 107 101 94 88 83
53 55 56 58 60 61 62 65 68 73 79 85 91 99 105 110 116 122 128 127 123 120 119 115 109 103 99 96 90 83 78 75
56 57 58 59 60 61 63 67 72 79 86 93 101 108 113 118 123 130 125 120 117 111 107 105 101 96 89 85 80 76 74 71
60 59 59 59 61 64 69 75 81 88 95 101 109 114 119 123 129 122 120 117 110 107 102 99 95 90 84 80 77 75 71 68
61 60 60 63 67 73 77 84 90 98 102 109 114 119 125 128 122 120 116 113 110 106 100 93 89 84 79 76 73 72 68 65
62 64 66 70 76 81 87 93 99 104 109 113 118 125 125 122 125 125 117 110 108 100 92 86 82 77 74 72 69 66 63 60
68 71 74 78 82 88 94 100 105 110 114 119 125 129 130 127 126 119 114 110 101 92 86 81 76 72 70 67 64 62 60 58

GFSFLT1_250_spd_036.txt.gz
Wind_Speed
73 64 60 51 51 49 45 36 17 20 46 56 58 67 73 78 77 78 80 79 76 74 73 73 74 76 78 80 80 79 77 76
52 47 47 48 46 44 35 29 40 54 62 69 74 78 80 78 79 80 79 78 76 74 75 76 79 80 81 81 81 82 83 84
40 39 39 35 28 32 36 41 46 55 63 73 76 74 79 78 78 77 77 77 76 77 79 80 81 83 84 85 86 88 90 91
35 38 40 44 47 49 52 54 55 57 63 68 71 73 74 75 76 76 77 78 79 80 81 82 84 85 88 89 91 94 96 99
38 41 45 50 52 54 55 57 58 61 66 68 69 70 71 72 74 77 79 81 82 82 83 85 88 92 95 98 99 104 108 112
35 36 37 38 40 42 45 46 48 55 60 62 66 69 71 73 76 77 77 80 81 82 88 93 96 99 102 106 111 116 118 121
32 34 36 40 42 44 47 50 54 58 61 64 67 69 72 74 77 79 80 81 85 90 94 97 101 105 110 115 120 122 125 125
37 40 41 43 48 49 51 52 55 57 60 63 66 69 72 74 76 79 82 86 90 95 99 103 107 112 118 122 123 127 125 122
41 43 45 46 48 51 53 56 58 59 61 64 67 70 73 76 79 82 85 89 94 100 106 110 116 121 123 125 126 121 119 119
44 47 49 51 52 54 56 58 60 62 65 69 71 73 75 78 81 85 89 95 101 106 112 116 117 120 122 120 118 118 116 114
48 50 52 55 57 59 61 62 63 65 68 70 71 72 74 78 82 89 96 103 108 112 115 116 119 118 117 118 116 112 110 109
50 53 56 57 59 60 61 61 62 64 66 67 69 73 78 84 90 98 104 106 109 111 115 116 115 116 115 112 108 103 98 96
50 51 52 54 54 56 58 59 60 62 64 69 74 79 86 92 98 103 107 107 114 114 114 114 117 114 107 102 98 93 89 86
52 51 50 51 52 53 55 57 60 64 69 75 81 88 95 101 106 113 114 115 117 116 118 118 113 105 99 93 90 87 84 81
53 50 48 50 53 56 58 62 66 73 80 85 91 99 103 108 115 116 118 120 121 120 118 113 105 98 92 89 86 83 78 75
54 51 51 53 56 60 64 68 75 82 88 94 100 106 109 116 118 120 122 122 121 120 114 106 100 94 90 86 82 79 75 71
58 54 55 59 64 68 73 79 86 91 96 102 107 111 118 121 122 122 123 121 119 115 107 101 94 90 86 82 78 74 71 65
63 63 65 69 73 77 82 89 94 98 103 109 113 117 121 124 123 125 122 118 118 111 102 97 92 86 82 77 74 70 65 63
71 70 72 76 80 84 89 94 100 105 109 113 118 122 123 125 125 122 121 117 112 104 99 94 88 82 77 73 71 67 63 58

GFSFLT1_250_spd_042.txt.gz
Wind_Speed
46 53 59 58 54 54 56 54 53 52 39 47 38 50 58 59 62 68 68 68 75 81 86 91 93 95 99 100 102 102 93 90
55 54 52 51 52 52 51 49 44 43 47 50 52 53 60 60 68 77 80 82 83 89 96 94 95 102 98 98 96 93 93 91
43 48 49 47 44 39 38 37 37 41 44 46 52 56 55 66 77 76 81 85 88 92 96 96 94 89 88 88 87 89 90 89
37 36 33 35 37 38 39 38 39 42 44 46 50 52 55 60 63 68 70 72 77 79 81 81 83 85 87 89 88 85 84 87
30 32 31 29 28 32 35 38 42 45 48 51 54 56 58 62 65 69 72 75 77 79 81 82 84 84 82 83 85 90 93 97
20 22 25 28 31 35 38 42 46 49 52 56 58 61 64 66 68 70 72 73 75 75 75 73 74 80 84 87 93 95 99 102
22 26 29 33 35 38 42 45 49 52 55 58 60 62 64 66 66 66 65 65 64 65 71 78 81 85 90 93 97 101 102 103
26 29 31 35 38 41 45 48 51 55 57 59 61 63 64 63 62 61 61 63 68 72 78 85 88 95 99 99 99 102 105 106
27 31 35 38 41 45 48 52 54 56 58 59 59 59 59 59 59 62 64 68 76 80 87 93 96 97 95 100 103 103 104 107
30 35 39 41 43 45 48 50 52 54 56 58 57 56 58 60 64 67 71 77 82 87 93 96 94 97 99 103 105 107 109 108
31 34 38 41 44 48 51 53 54 54 56 58 61 63 64 67 69 72 77 82 88 96 94 95 97 100 103 106 108 109 110 110
34 39 41 45 49 52 56 58 59 60 61 61 63 66 68 70 74 77 84 88 97 96 96 99 100 103 105 107 111 110 107 103
39 44 47 51 55 59 62 63 64 65 66 66 68 69 69 72 77 85 90 96 101 102 102 101 102 105 108 110 109 104 103 97
44 49 53 56 60 63 67 69 70 71 71 71 74 74 75 78 86 90 96 104 106 105 104 105 106 108 110 108 103 101 95 89
49 53 57 61 66 68 72 73 75 76 77 78 79 79 80 85 91 98 103 108 110 109 109 108 110 112 109 104 100 93 88 83
55 59 62 67 71 73 77 80 82 82 83 84 85 85 86 93 98 104 108 114 114 112 113 112 111 108 104 100 94 88 83 79
62 65 69 72 76 78 83 86 86 86 87 89 89 89 92 98 104 110 114 116 113 112 115 110 106 102 98 95 88 83 79 75
67 70 74 78 81 85 88 91 88 90 92 94 92 93 99 106 110 115 118 115 112 113 111 107 103 100 95 87 81 78 73 70
72 76 80 84 87 90 93 93 92 94 97 96 94 99 105 111 115 119 119 116 110 107 106 109 103 97 87 81 78 74 69 66

GFSFLT1_250_spd_045.txt.gz
Wind_Speed
41 46 47 48 51 58 60 63 65 67 63 64 62 56 55 58 59 63 63 72 71 74 78 81 85 89 95 96 100 102 102 99
51 49 46 47 50 55 58 60 61 62 62 59 54 55 54 59 61 67 71 77 77 82 85 88 94 98 99 102 89 87 89 88
44 47 50 55 60 59 55 54 52 49 46 46 47 49 53 57 61 60 67 73 76 76 79 81 82 85 85 85 87 86 85 81
48 49 51 50 45 43 40 39 37 37 39 41 44 48 52 57 60 64 68 71 74 77 80 83 84 83 81 77 74 75 79 88
40 40 39 35 33 29 29 32 36 39 43 47 51 55 59 63 67 70 71 76 77 78 78 77 73 70 68 74 78 83 89 93
31 29 24 23 25 29 32 36 40 43 46 50 55 59 62 64 66 68 69 70 70 70 68 66 68 71 76 80 85 92 98 101
20 20 22 25 29 33 36 39 42 45 48 51 53 55 57 59 59 60 62 62 62 62 66 69 74 77 82 86 93 97 100 104
18 21 24 28 31 35 38 41 43 45 49 51 53 55 56 57 58 59 61 66 68 70 73 74 76 82 87 93 96 99 102 102
20 22 26 29 32 34 36 38 42 47 50 53 55 57 58 60 59 61 64 65 66 67 70 76 84 88 95 98 101 102 103 105
21 25 28 31 34 37 39 41 45 48 52 54 58 63 64 64 64 66 68 69 70 71 74 82 88 95 98 101 103 104 106 108
26 29 33 34 38 42 45 47 50 54 60 63 67 70 73 72 72 72 74 76 76 79 83 89 96 99 103 105 106 106 108 108
30 33 36 38 42 46 50 55 60 64 66 70 75 77 79 77 76 78 79 81 81 84 90 96 101 104 106 106 108 109 112 113
36 40 43 46 50 52 57 62 66 70 74 78 80 83 85 81 80 83 85 84 85 90 96 102 106 109 108 107 107 110 113 111
42 45 48 52 56 58 62 68 72 76 80 85 85 88 87 85 86 88 89 89 92 97 102 107 112 115 112 108 109 110 110 107
47 51 55 59 63 66 71 74 78 82 85 88 89 90 89 89 90 94 92 94 98 102 107 115 119 115 112 112 111 107 104 98
52 56 59 64 69 72 76 79 83 85 88 92 93 92 91 92 96 95 96 101 105 109 115 120 121 112 114 111 107 104 99 92
56 60 64 68 71 76 80 83 84 87 92 95 95 93 94 97 97 99 103 107 111 117 121 120 114 111 111 106 103 101 94 86
59 64 70 74 77 81 81 84 88 92 96 97 95 95 98 98 101 105 108 112 118 121 121 115 115 111 109 104 100 95 86 80
63 69 74 77 81 83 85 89 91 96 98 96 96 98 99 102 106 110 114 119 122 121 116 114 112 109 107 102 94 85 78 74

GFSFLT1_250_spd_048.txt.gz
Wind_Speed
33 35 40 42 46 45 48 51 55 58 57 60 64 69 70 71 71 69 67 67 68 67 70 76 80 80 80 85 89 87 86 85
33 40 48 44 48 51 56 61 59 58 61 68 69 63 61 62 61 60 61 64 67 70 73 77 82 81 80 80 80 80 80 78
45 47 50 49 52 55 53 55 57 61 59 56 56 52 49 49 52 55 60 63 67 70 74 75 76 77 77 76 76 74 71 70
50 50 48 48 47 49 51 51 51 49 46 42 42 45 48 50 55 58 61 64 66 65 65 65 65 66 68 69 69 68 70 73
46 47 49 46 45 43 43 39 35 36 38 40 43 45 48 51 53 54 59 62 63 64 65 65 67 69 71 73 74 75 75 75
40 38 38 39 37 32 30 32 35 36 39 41 42 43 44 46 49 52 55 56 58 61 65 68 69 71 73 74 73 74 75 82
36 34 33 27 27 29 30 31 34 36 37 37 39 43 45 50 57 61 65 67 67 65 63 66 70 71 72 73 75 78 83 91
26 24 24 26 27 27 29 30 33 36 38 41 44 48 53 56 61 66 71 73 76 73 71 71 72 74 75 76 79 84 91 97
24 23 26 27 27 29 30 32 37 42 42 47 52 56 59 65 68 74 77 79 81 79 77 77 77 77 79 82 88 94 97 101
23 25 26 29 30 34 37 38 43 47 51 54 58 61 66 71 75 77 81 84 84 81 79 79 80 81 85 89 95 99 102 107
26 29 31 32 36 38 45 46 48 54 59 61 63 68 73 77 79 83 86 89 87 84 84 84 85 90 94 97 99 103 107 110
31 32 36 39 38 43 50 54 54 58 63 66 69 75 80 84 83 87 90 92 89 87 87 89 93 96 102 101 104 107 109 110
36 39 40 45 48 47 51 57 61 65 69 72 77 82 85 85 90 90 94 94 91 89 91 95 99 103 106 107 108 111 109 113
41 45 46 47 50 54 55 62 68 73 76 79 82 83 85 89 92 95 97 93 91 94 97 102 105 107 109 112 113 111 111 110
43 46 50 52 54 58 61 64 70 76 79 83 84 85 89 91 95 98 94 93 95 99 104 108 107 111 115 116 113 112 113 112
51 51 54 56 57 61 65 69 74 80 82 83 86 90 92 96 98 96 94 96 100 105 109 112 113 116 117 113 113 112 108 106
54 58 59 59 61 65 72 76 79 80 84 88 91 92 99 98 98 95 97 101 106 110 113 115 118 117 115 114 111 106 103 100
57 59 62 63 64 70 75 79 79 84 89 92 94 98 100 100 98 99 103 108 112 115 116 117 116 112 113 110 106 103 98 91
61 63 65 66 72 76 79 82 84 89 93 95 100 102 100 99 101 104 109 112 114 117 118 116 112 109 107 105 104 100 94 87